Clermont County, Batavia, OH

4:08 PM EST on December 09, 2019 (GMT -0500)
Clermont County, Batavia

Weather History for KI69 - September, 2019

Change the Weather History Date:

Saturday, September 7, 2019

  Actual Average (WUND) Record (WUND)
Temperature  
Mean Temperature 68 °F -  
Max Temperature 75 °F - - (-1)
Min Temperature 62 °F - - (-1)
Cooling Degree Days 4    
Growing Degree Days 18 (Base 50)    
Moisture  
Dew Point 61 °F    
Average Humidity 81    
Maximum Humidity 94    
Minimum Humidity 54    
Precipitation  
Precipitation 0.00 in - - ()
Sea Level Pressure  
Sea Level Pressure 30.02 in    
Wind  
Wind Speed 3 mph (NW)    
Max Wind Speed 7 mph    
Max Gust Speed -    
Visibility 10 miles    
Events      
Averages and records for this station are not official NWS values.
T = Trace of Precipitation, MM = Missing Value Source: NWS Daily Summary

Daily Weather History Graph

Daily Weather History Graph

Search for Another Location

Airport or City:

Astronomy

Sep. 07, 2019 Rise Set
Actual Time 7:10 AM EDT 7:58 PM EDT
Civil Twilight 6:43 AM EDT 8:25 PM EDT
Nautical Twilight 6:11 AM EDT 8:57 PM EDT
Astronomical Twilight 5:38 AM EDT 9:30 PM EDT
Moon 4:11 PM EDT (9/7) 1:04 AM EDT (9/7)
Length of Visible Light 13h 41m
Length of Day
12h 47m
Waxing Gibbous, 65% of the Moon is Illuminated
Sep 7
Waxing Gibbous
Sep 14
Full
Sep 21
Last Quarter
Sep 28
New
Oct 5
First Quarter

Hourly Weather History & Observations

Time (EDT) Temp. Dew Point Humidity Pressure Visibility Wind Dir Wind Speed Gust Speed Precip Events Conditions
12:15 AM 68.4 °F 65.3 °F 90% 29.96 in 10.0 mi NNW 4.6 mph - N/A   Mostly Cloudy
12:38 AM 68.9 °F 65.3 °F 88% 29.95 in 10.0 mi NNW 3.5 mph - N/A   Overcast
12:56 AM 68.2 °F 65.3 °F 90% 29.96 in 10.0 mi NW 4.6 mph - N/A   Overcast
1:15 AM 68.5 °F 65.3 °F 89% 29.96 in 10.0 mi NW 5.8 mph - N/A   Overcast
1:35 AM 68.0 °F 64.4 °F 88% 29.96 in 10.0 mi NNW 5.8 mph - N/A   Mostly Cloudy
1:55 AM 67.5 °F 63.9 °F 88% 29.96 in 10.0 mi NNW 6.9 mph - N/A   Mostly Cloudy
2:18 AM 67.5 °F 63.7 °F 88% 29.97 in 10.0 mi Calm Calm - N/A   Overcast
2:36 AM 66.2 °F 62.6 °F 88% 29.97 in 10.0 mi North 6.9 mph - N/A   Mostly Cloudy
2:55 AM 65.3 °F 61.7 °F 88% 29.97 in 10.0 mi North 6.9 mph - N/A   Scattered Clouds
3:15 AM 64.9 °F 61.0 °F 87% 29.97 in 10.0 mi NNW 4.6 mph - N/A   Clear
3:35 AM 64.2 °F 60.4 °F 87% 29.97 in 10.0 mi NW 3.5 mph - N/A   Clear
3:58 AM 63.9 °F 60.4 °F 89% 29.97 in 10.0 mi Calm Calm - N/A   Scattered Clouds
4:16 AM 63.5 °F 60.3 °F 89% 29.98 in 10.0 mi Calm Calm - N/A   Mostly Cloudy
4:35 AM 62.6 °F 60.1 °F 91% 29.98 in 10.0 mi NW 3.5 mph - N/A   Scattered Clouds
4:55 AM 62.6 °F 60.3 °F 92% 29.98 in 10.0 mi NNW 4.6 mph - N/A   Scattered Clouds
5:20 AM 62.2 °F 60.3 °F 93% 29.99 in 10.0 mi WNW 3.5 mph - N/A   Mostly Cloudy
5:38 AM 62.4 °F 60.3 °F 93% 29.99 in 10.0 mi WNW 3.5 mph - N/A   Mostly Cloudy
5:56 AM 62.6 °F 60.8 °F 94% 29.99 in 10.0 mi WNW 4.6 mph - N/A   Overcast
6:15 AM 62.8 °F 60.8 °F 93% 29.99 in 10.0 mi WNW 4.6 mph - N/A   Overcast
6:35 AM 63.0 °F 60.8 °F 93% 30.00 in 10.0 mi NW 3.5 mph - N/A   Overcast
6:59 AM 63.5 °F 61.0 °F 91% 30.01 in 10.0 mi NW 3.5 mph - N/A   Overcast
7:18 AM 63.5 °F 61.2 °F 92% 30.01 in 10.0 mi Calm Calm - N/A   Overcast
7:36 AM 63.7 °F 61.3 °F 92% 30.02 in 10.0 mi Calm Calm - N/A   Overcast
7:55 AM 63.7 °F 61.5 °F 93% 30.03 in 10.0 mi NW 3.5 mph - N/A   Overcast
8:15 AM 63.9 °F 61.7 °F 93% 30.03 in 10.0 mi Calm Calm - N/A   Overcast
8:39 AM 64.0 °F 61.9 °F 93% 30.04 in 10.0 mi Calm Calm - N/A   Overcast
8:57 AM 64.4 °F 62.1 °F 92% 30.04 in 10.0 mi Calm Calm - N/A   Overcast
9:16 AM 64.6 °F 62.4 °F 93% 30.04 in 10.0 mi Calm Calm - N/A   Overcast
9:35 AM 64.8 °F 62.2 °F 92% 30.04 in 10.0 mi Calm Calm - N/A   Overcast
9:55 AM 64.8 °F 62.2 °F 92% 30.05 in 7.0 mi Calm Calm - N/A   Overcast
10:19 AM 65.3 °F 62.6 °F 91% 30.06 in 10.0 mi WNW 3.5 mph - N/A   Overcast
10:37 AM 65.5 °F 62.6 °F 90% 30.06 in 10.0 mi WNW 3.5 mph - N/A   Overcast
10:55 AM 66.2 °F 62.6 °F 88% 30.06 in 10.0 mi Calm Calm - N/A   Overcast
11:15 AM 66.9 °F 62.8 °F 87% 30.06 in 10.0 mi Calm Calm - N/A   Overcast
11:35 AM 67.1 °F 62.8 °F 86% 30.06 in 10.0 mi NW 4.6 mph - N/A   Overcast
11:59 AM 67.3 °F 62.6 °F 85% 30.07 in 10.0 mi WNW 3.5 mph - N/A   Overcast
12:17 PM 67.6 °F 62.8 °F 84% 30.07 in 10.0 mi WNW 3.5 mph - N/A   Overcast
12:35 PM 68.0 °F 63.1 °F 84% 30.07 in 10.0 mi WNW 4.6 mph - N/A   Overcast
12:56 PM 68.2 °F 62.8 °F 83% 30.06 in 10.0 mi WNW 4.6 mph - N/A   Overcast
1:15 PM 68.2 °F 62.8 °F 83% 30.06 in 10.0 mi Calm Calm - N/A   Overcast
1:39 PM 69.8 °F 63.1 °F 79% 30.06 in 10.0 mi West 4.6 mph - N/A   Overcast
1:57 PM 70.9 °F 63.0 °F 76% 30.05 in 10.0 mi WNW 6.9 mph - N/A   Overcast
2:15 PM 70.9 °F 62.8 °F 75% 30.04 in 10.0 mi Calm Calm - N/A   Overcast
2:35 PM 72.9 °F 62.6 °F 70% 30.04 in 10.0 mi Calm Calm - N/A   Mostly Cloudy
2:56 PM 73.8 °F 63.1 °F 69% 30.03 in 10.0 mi Calm Calm - N/A   Mostly Cloudy
3:19 PM 73.4 °F 61.0 °F 65% 30.03 in 10.0 mi West 4.6 mph - N/A   Mostly Cloudy
3:37 PM 72.7 °F 61.5 °F 68% 30.03 in 10.0 mi North 4.6 mph - N/A   Overcast
3:55 PM 72.7 °F 61.3 °F 67% 30.02 in 10.0 mi WNW 5.8 mph - N/A   Overcast
4:15 PM 72.9 °F 61.0 °F 66% 30.02 in 10.0 mi WSW 3.5 mph - N/A   Mostly Cloudy
4:35 PM 75.4 °F 60.6 °F 60% 30.01 in 10.0 mi Calm Calm - N/A   Overcast
4:59 PM 75.9 °F 61.3 °F 60% 30.02 in 10.0 mi WNW 3.5 mph - N/A   Overcast
5:17 PM 73.8 °F 58.1 °F 58% 30.02 in 10.0 mi NW 4.6 mph - N/A   Mostly Cloudy
5:35 PM 74.7 °F 59.9 °F 60% 30.02 in 10.0 mi North 5.8 mph - N/A   Scattered Clouds
5:55 PM 75.4 °F 58.3 °F 55% 30.03 in 10.0 mi NNW 6.9 mph - N/A   Mostly Cloudy
6:15 PM 75.7 °F 59.2 °F 56% 30.03 in 10.0 mi NW 5.8 mph - N/A   Scattered Clouds
6:38 PM 75.0 °F 57.2 °F 54% 30.02 in 10.0 mi NNW 3.5 mph - N/A   Clear
6:57 PM 74.8 °F 58.1 °F 56% 30.02 in 10.0 mi Calm Calm - N/A   Clear
7:15 PM 74.3 °F 57.4 °F 55% 30.02 in 10.0 mi Calm Calm - N/A   Clear
7:35 PM 72.1 °F 60.3 °F 66% 30.03 in 10.0 mi Calm Calm - N/A   Clear
7:55 PM 71.2 °F 60.3 °F 68% 30.03 in 10.0 mi Calm Calm - N/A   Clear
8:18 PM 70.0 °F 60.8 °F 73% 30.03 in 10.0 mi Calm Calm - N/A   Clear
8:37 PM 69.4 °F 60.8 °F 74% 30.03 in 10.0 mi Calm Calm - N/A   Scattered Clouds
8:55 PM 68.0 °F 60.8 °F 78% 30.04 in 10.0 mi Calm Calm - N/A   Scattered Clouds
9:15 PM 67.1 °F 60.8 °F 80% 30.04 in 10.0 mi Calm Calm - N/A   Mostly Cloudy
9:35 PM 67.3 °F 60.4 °F 79% 30.05 in 10.0 mi Calm Calm - N/A   Overcast
9:58 PM 68.0 °F 60.1 °F 76% 30.05 in 10.0 mi NW 3.5 mph - N/A   Overcast
10:15 PM 67.5 °F 60.3 °F 78% 30.05 in 10.0 mi NW 3.5 mph - N/A   Overcast
10:35 PM 67.1 °F 60.3 °F 79% 30.06 in 10.0 mi NNW 3.5 mph - N/A   Overcast
10:58 PM 66.2 °F 60.3 °F 81% 30.06 in 10.0 mi Calm Calm - N/A   Scattered Clouds
11:16 PM 63.9 °F 60.8 °F 90% 30.06 in 10.0 mi Calm Calm - N/A   Scattered Clouds
11:35 PM 65.8 °F 59.7 °F 81% 30.07 in 10.0 mi Calm Calm - N/A   Scattered Clouds
11:55 PM 65.3 °F 59.7 °F 82% 30.07 in 10.0 mi Calm Calm - N/A   Clear